Delta, CO

6:30 AM MDT on October 24, 2017 (GMT -0600)
Delta

Weather History for KAJZ - February, 2013

Change the Weather History Date:

Sunday, February 10, 2013

  Actual Average (KMTJ) Record (KMTJ)
Temperature  
Mean Temperature 32 °F -  
Max Temperature 40 °F 40 °F 67 °F (2017)
Min Temperature 25 °F 19 °F -5 °F (2011)
Degree Days  
Heating Degree Days 32    
Moisture  
Dew Point 21 °F    
Average Humidity 65    
Maximum Humidity 92    
Minimum Humidity 34    
Precipitation  
Precipitation 0.00 in - - ()
Sea Level Pressure  
Sea Level Pressure 29.83 in    
Wind  
Wind Speed 5 mph (NE)    
Max Wind Speed 12 mph    
Max Gust Speed 16 mph    
Visibility 9 miles    
Events Snow    
Averages and records for this station are not official NWS values.
T = Trace of Precipitation, MM = Missing Value Source: NWS Daily Summary

Daily Weather History Graph

Daily Weather History Graph

Search for Another Location

Airport or City:

Trip Planner

Search our weather history database for the weather conditions in past years. The results will help you decide how hot, cold, wet, or windy it might be!

Date:

Astronomy

Feb. 10, 2013 Rise Set
Actual Time 7:08 AM MST 5:44 PM MST
Civil Twilight 6:41 AM MST 6:12 PM MST
Nautical Twilight 6:09 AM MST 6:43 PM MST
Astronomical Twilight 5:39 AM MST 7:14 PM MST
Moon 7:01 AM MST (2/10) 6:37 PM MST (2/10)
Length of Visible Light 11h 30m
Length of Day
10h 35m
New Moon, 0% of the Moon is Illuminated
Feb 10
New Moon
Feb 17
First Quarter
Feb 25
Full
Mar 4
Last Quarter
Mar 11
New

Hourly Weather History & Observations

Time (MST) Temp. Windchill Dew Point Humidity Pressure Visibility Wind Dir Wind Speed Gust Speed Precip Events Conditions
12:15 AM 31.8 °F 22.8 °F 23.0 °F 70% 29.75 in 10.0 mi SW 11.5 mph 16.1 mph N/A   Overcast
12:35 AM 30.9 °F 21.7 °F 24.4 °F 77% 29.75 in 10.0 mi WSW 11.5 mph - N/A   Overcast
12:55 AM 31.3 °F 24.7 °F 23.7 °F 74% 29.75 in 10.0 mi West 6.9 mph - N/A   Overcast
1:35 AM 31.8 °F 26.2 °F 21.2 °F 65% 29.75 in 10.0 mi WSW 5.8 mph - N/A   Mostly Cloudy
1:55 AM 28.4 °F 21.2 °F 23.5 °F 82% 29.75 in 10.0 mi WSW 6.9 mph - N/A   Scattered Clouds
2:15 AM 29.3 °F 24.3 °F 24.3 °F 81% 29.76 in 10.0 mi WSW 4.6 mph - N/A   Mostly Cloudy
2:35 AM 30.2 °F - 23.7 °F 77% 29.77 in 10.0 mi Calm Calm - N/A   Overcast
2:55 AM 31.5 °F 28.1 °F 22.5 °F 69% 29.77 in 10.0 mi NE 3.5 mph - N/A   Overcast
3:15 AM 29.8 °F 23.9 °F 23.9 °F 79% 29.77 in 10.0 mi NE 5.8 mph - N/A   Overcast
3:35 AM 28.8 °F - 24.1 °F 83% 29.77 in 10.0 mi Calm Calm - N/A   Overcast
3:55 AM 28.9 °F 23.9 °F 25.5 °F 87% 29.77 in 2.5 mi NE 4.6 mph - N/A Snow Light Snow
4:15 AM 28.4 °F 24.6 °F 26.1 °F 91% 29.78 in 7.0 mi NE 3.5 mph - N/A   Overcast
4:35 AM 28.4 °F 24.6 °F 26.2 °F 92% 29.78 in 1.5 mi NNE 3.5 mph - N/A Snow Light Snow
4:55 AM 28.4 °F 24.6 °F 26.1 °F 91% 29.78 in 4.0 mi North 3.5 mph - N/A Snow Light Snow
5:15 AM 28.4 °F 22.2 °F 26.2 °F 92% 29.79 in 5.0 mi NNE 5.8 mph - N/A Snow Light Snow
5:35 AM 28.4 °F - 26.1 °F 91% 29.79 in 3.0 mi Calm Calm - N/A Snow Light Snow
5:55 AM 28.4 °F - 25.2 °F 88% 29.79 in 2.0 mi Calm Calm - N/A Snow Light Snow
6:15 AM 27.5 °F 23.6 °F 23.4 °F 84% 29.80 in 4.0 mi ENE 3.5 mph - N/A Snow Light Snow
6:35 AM 27.0 °F 21.6 °F 21.7 °F 81% 29.81 in 7.0 mi NE 4.6 mph - N/A Snow Light Snow
6:55 AM 25.0 °F 17.1 °F 20.3 °F 82% 29.81 in 7.0 mi North 6.9 mph - N/A Snow Light Snow
7:15 AM 26.4 °F 19.8 °F 21.2 °F 81% 29.82 in 10.0 mi NNE 5.8 mph - N/A Snow Light Snow
7:35 AM 26.6 °F 22.6 °F 20.8 °F 79% 29.83 in 1.8 mi North 3.5 mph - N/A Snow Light Snow
7:55 AM 26.6 °F 22.6 °F 21.2 °F 80% 29.83 in 5.0 mi ENE 3.5 mph - N/A Snow Light Snow
8:15 AM 27.0 °F 21.6 °F 18.7 °F 71% 29.84 in 7.0 mi NE 4.6 mph - N/A Snow Light Snow
8:35 AM 27.3 °F - 18.0 °F 68% 29.85 in 10.0 mi Calm Calm - N/A   Overcast
8:55 AM 26.6 °F - 16.9 °F 67% 29.85 in 10.0 mi Calm Calm - N/A   Mostly Cloudy
9:15 AM 26.1 °F - 16.7 °F 68% 29.85 in 10.0 mi Calm Calm - N/A   Mostly Cloudy
9:35 AM 30.0 °F 26.5 °F 21.0 °F 69% 29.86 in 10.0 mi ENE 3.5 mph - N/A   Overcast
9:55 AM 30.0 °F 26.5 °F 23.4 °F 76% 29.86 in 10.0 mi East 3.5 mph - N/A   Overcast
10:15 AM 31.1 °F 26.4 °F 25.5 °F 80% 29.87 in 10.0 mi East 4.6 mph - N/A   Overcast
10:35 AM 31.1 °F 27.7 °F 25.5 °F 80% 29.87 in 10.0 mi East 3.5 mph - N/A   Mostly Cloudy
10:55 AM 32.4 °F 29.1 °F 26.4 °F 79% 29.87 in 10.0 mi ENE 3.5 mph - N/A   Mostly Cloudy
11:15 AM 33.1 °F - 24.8 °F 72% 29.87 in 10.0 mi Calm Calm - N/A   Scattered Clouds
11:35 AM 33.8 °F - 24.1 °F 68% 29.86 in 10.0 mi Calm Calm - N/A   Mostly Cloudy
11:55 AM 35.6 °F 32.8 °F 20.5 °F 54% 29.85 in 10.0 mi East 3.5 mph - N/A   Mostly Cloudy
12:15 PM 36.3 °F - 21.2 °F 54% 29.85 in 10.0 mi Calm Calm - N/A   Clear
12:35 PM 36.7 °F 32.9 °F 19.8 °F 50% 29.83 in 10.0 mi SE 4.6 mph - N/A   Clear
12:55 PM 37.8 °F 34.2 °F 19.0 °F 47% 29.82 in 10.0 mi East 4.6 mph - N/A   Clear
1:15 PM 37.9 °F - 18.7 °F 46% 29.82 in 10.0 mi Calm Calm - N/A   Clear
1:35 PM 39.4 °F - 18.0 °F 42% 29.81 in 10.0 mi Calm Calm - N/A   Scattered Clouds
1:55 PM 39.9 °F 34.5 °F 17.6 °F 41% 29.81 in 10.0 mi ESE 8.1 mph - N/A   Clear
2:15 PM 39.2 °F - 16.2 °F 39% 29.81 in 10.0 mi Calm Calm - N/A   Clear
2:35 PM 40.1 °F 38.0 °F 16.0 °F 38% 29.81 in 10.0 mi SE 3.5 mph - N/A   Clear
2:55 PM 40.3 °F - 14.7 °F 35% 29.80 in 10.0 mi Calm Calm - N/A   Clear
3:15 PM 40.1 °F 36.9 °F 14.4 °F 35% 29.81 in 10.0 mi South 4.6 mph - N/A   Clear
3:35 PM 40.1 °F - 13.6 °F 34% 29.81 in 10.0 mi Calm Calm - N/A   Clear
3:55 PM 39.6 °F 37.4 °F 13.5 °F 34% 29.81 in 10.0 mi WSW 3.5 mph - N/A   Clear
4:15 PM 39.6 °F 35.4 °F 14.0 °F 35% 29.81 in 10.0 mi South 5.8 mph - N/A   Clear
4:35 PM 39.2 °F - 13.3 °F 35% 29.81 in 10.0 mi Calm Calm - N/A   Clear
4:55 PM 38.5 °F - 12.4 °F 34% 29.81 in 10.0 mi Calm Calm - N/A   Clear
5:15 PM 38.3 °F - 12.4 °F 35% 29.82 in 10.0 mi Calm Calm - N/A   Clear
5:35 PM 38.1 °F - 14.0 °F 37% 29.82 in 10.0 mi Calm Calm - N/A   Mostly Cloudy
5:55 PM 37.9 °F 34.4 °F 15.3 °F 40% 29.83 in 10.0 mi South 4.6 mph - N/A   Overcast
6:15 PM 37.4 °F 34.9 °F 15.1 °F 40% 29.84 in 10.0 mi SSE 3.5 mph - N/A   Overcast
6:35 PM 37.2 °F - 16.2 °F 42% 29.85 in 10.0 mi Calm Calm - N/A   Overcast
6:55 PM 36.0 °F 29.0 °F 20.7 °F 54% 29.85 in 10.0 mi NW 9.2 mph - N/A   Overcast
7:15 PM 34.7 °F 28.8 °F 22.8 °F 62% 29.86 in 10.0 mi North 6.9 mph - N/A   Overcast
7:35 PM 34.7 °F 27.5 °F 22.6 °F 61% 29.86 in 10.0 mi North 9.2 mph - N/A   Overcast
7:55 PM 35.1 °F 29.3 °F 21.2 °F 57% 29.87 in 10.0 mi ENE 6.9 mph - N/A   Overcast
8:15 PM 34.3 °F 27.0 °F 22.1 °F 61% 29.88 in 10.0 mi NE 9.2 mph - N/A   Overcast
8:35 PM 33.3 °F 28.9 °F 23.5 °F 68% 29.88 in 10.0 mi ENE 4.6 mph - N/A   Overcast
8:55 PM 32.9 °F 28.5 °F 24.3 °F 71% 29.89 in 10.0 mi NE 4.6 mph - N/A   Overcast
9:15 PM 32.9 °F 26.7 °F 24.6 °F 72% 29.89 in 10.0 mi NE 6.9 mph - N/A   Overcast
9:35 PM 32.5 °F 26.2 °F 25.5 °F 75% 29.90 in 10.0 mi NE 6.9 mph - N/A   Overcast
9:55 PM 32.5 °F 28.1 °F 25.5 °F 75% 29.90 in 10.0 mi NNE 4.6 mph - N/A   Overcast
10:15 PM 32.5 °F 27.1 °F 25.5 °F 75% 29.90 in 10.0 mi North 5.8 mph - N/A   Overcast
10:35 PM 32.0 °F 24.2 °F 25.9 °F 78% 29.89 in 10.0 mi NNE 9.2 mph - N/A   Overcast
10:55 PM 31.3 °F 24.7 °F 25.7 °F 80% 29.89 in 10.0 mi North 6.9 mph - N/A   Mostly Cloudy
11:15 PM 31.5 °F 24.2 °F 25.7 °F 79% 29.88 in 10.0 mi North 8.1 mph - N/A   Mostly Cloudy
11:35 PM 31.6 °F 26.0 °F 25.7 °F 79% 29.88 in 10.0 mi North 5.8 mph - N/A   Overcast
11:55 PM 32.0 °F 25.6 °F 25.0 °F 75% 29.88 in 10.0 mi NNE 6.9 mph - N/A   Overcast